Regional Weather Roundup
Issued by NWS

Home | Current Version | Previous Version | Text Only | Print | Product List | Glossary On
Versions: 1 2 3 4 5 6 7 8 9 10 11 12 13 14 15 16 17 18 19 20 21 22 23 24 25 26 27 28 29 30 31 32 33 34 35 36 37 38 39 40 41 42 43 44 45 46 47 48 49 50
000
ASUS42 KKEY 051610
RWRKEY

FLORIDA REGIONAL WEATHER ROUNDUP FOR THE FLORIDA KEYS
NATIONAL WEATHER SERVICE KEY WEST FLORIDA
1200 PM EDT SUN JUL 05 2015

...SOUTH FLORIDA AND THE KEYS...

CITY           SKY/WX    TMP DP  RH WIND       PRES   REMARKS
FORT MYERS     MOSUNNY   88  75  65 NE6       30.16S HX  97
SW REGIONAL AP PTSUNNY   86  74  67 CALM      30.17S HX  94
NAPLES         PTSUNNY   89  76  65 E7        30.16S HX 100
MIAMI          MOSUNNY   89  70  53 SE12      30.18R HX  94
WEST KENDALL   PTSUNNY   89  74  60 SE9       30.17R HX  98
HOMESTEAD      MOSUNNY   89  74  62 E12       30.17R HX  97
MARATHON       MOSUNNY   91  77  63 E7        30.16R HX 104
BOCA CHICA NAS MOSUNNY   88  76  67 SE12      30.15R HX  99
KEY WEST INTL  MOSUNNY   89  78  70 E12       30.15S HX 103

...INTERNATIONAL WEATHER...

CITY           SKY/WX    TMP DP  RH WIND       PRES   REMARKS
NASSAU BAHAMAS NOT AVBL
CANCUN MEXICO  PTSUNNY   88  77  70 NE8       30.09S HX 100
COZUMEL MEXICO PTSUNNY   84  75  74 E12       30.09R HX  92

ADJACENT COASTAL WATERS...

STATION/POSITION TIME  SKY/WX   TEMP    WIND        PRES    WAVE
                                AIR SEA DIR/SP/G            HT/PER
                 (UTC)          (F)     (DEG/KT/KT) (MB)    (FT/S)
PULASKI SHOAL LI 1500            85     140/ 12/ 14 1020.5S
SAND KEY         1550            85     100/ 10/ 14 1020.8S
SOMBRERO KEY     1500            85     110/ 12/ 13 1021.6R
LONG KEY         1500            85 87  140/ 10/ 11 1021.8R
MOLASSES REEF    1500            84 86  110/ 12/ 12 1021.1R
FOWEY ROCKS      NOT AVBL

$$



USA.gov is the U.S. government's official web portal to all federal, state and local government web resources and services.